Tillbaka till svenska Fidonet
English   Information   Debug  
FILM   0/18
FNEWS_PUBLISH   4881
FN_SYSOP   42085
FN_SYSOP_OLD1   71952
FTP_FIDO   0/2
FTSC_PUBLIC   0/13950
FUNNY   0/4886
GENEALOGY.EUR   0/71
GET_INFO   105
GOLDED   0/408
HAM   5505/16617
HOLYSMOKE   0/6791
HOT_SITES   0/1
HTMLEDIT   0/71
HUB203   466
HUB_100   264
HUB_400   39
HUMOR   0/29
IC   2617/2851
INTERNET   0/424
INTERUSER   0/3
IP_CONNECT   719
JAMNNTPD   0/233
JAMTLAND   0/47
KATTY_KORNER   0/41
LAN   0/16
LINUX-USER   0/19
LINUXHELP   0/1155
LINUX   0/22287
LINUX_BBS   0/957
mail   18.68
mail_fore_ok   249
MENSA   0/341
MODERATOR   0/102
MONTE   0/992
MOSCOW_OKLAHOMA   0/1245
MUFFIN   0/783
MUSIC   0/321
N203_STAT   938
N203_SYSCHAT   313
NET203   321
NET204   69
NET_DEV   0/10
NORD.ADMIN   0/101
NORD.CHAT   0/2572
NORD.FIDONET   189
NORD.HARDWARE   0/28
NORD.KULTUR   0/114
NORD.PROG   0/32
NORD.SOFTWARE   0/88
NORD.TEKNIK   0/58
NORD   0/453
OCCULT_CHAT   0/93
OS2BBS   0/787
OS2DOSBBS   0/580
OS2HW   0/42
OS2INET   0/37
OS2LAN   0/134
OS2PROG   0/36
OS2REXX   0/113
OS2USER-L   207
OS2   0/4829
OSDEBATE   14667/18996
PASCAL   0/490
PERL   0/457
PHP   0/45
POINTS   0/405
POLITICS   0/29554
POL_INC   13579/14731
PSION   103
R20_ADMIN   1133
R20_AMATORRADIO   0/2
R20_BEST_OF_FIDONET   16
R20_CHAT   0/896
R20_DEPP   0/3
R20_DEV   400
R20_ECHO2   1789
R20_ECHOPRES   0/35
R20_ESTAT   0/719
R20_FIDONETPROG...
...RAM.MYPOINT
  0/2
R20_FIDONETPROGRAM   0/22
R20_FIDONET   0/248
R20_FILEFIND   0/24
R20_FILEFOUND   0/22
R20_HIFI   0/3
R20_INFO2   3681
R20_INTERNET   0/12940
R20_INTRESSE   0/60
R20_INTR_KOM   0/99
R20_KANDIDAT.CHAT   42
R20_KANDIDAT   28
R20_KOM_DEV   112
R20_KONTROLL   0/13360
R20_KORSET   0/18
R20_LOKALTRAFIK   0/24
R20_MODERATOR   0/1852
R20_NC   76
R20_NET200   245
R20_NETWORK.OTH...
...ERNETS
  0/13
R20_OPERATIVSYS...
...TEM.LINUX
  0/44
R20_PROGRAMVAROR   0/1
R20_REC2NEC   534
R20_SFOSM   0/341
R20_SF   0/108
R20_SPRAK.ENGLISH   0/1
R20_SQUISH   107
R20_TEST   2
R20_WORST_OF_FIDONET   20
RAR   0/9
RA_MULTI   106
RA_UTIL   0/162
REGCON.EUR   0/2067
REGCON   0/13
SCIENCE   0/1206
SF   0/239
SHAREWARE_SUPPORT   0/5146
SHAREWRE   0/14
SIMPSONS   0/169
STATS_OLD1   0/2539.065
STATS_OLD2   0/2530
STATS_OLD3   0/2395.095
STATS_OLD4   0/1692.25
SURVIVOR   0/495
SYSOPS_CORNER   0/3
SYSOP   0/84
TAGLINES   0/112
TEAMOS2   0/4530
TECH   0/2617
TEST.444   0/105
TRAPDOOR   0/19
TREK   0/755
TUB   0/290
UFO   0/40
UNIX   0/1316
USA_EURLINK   0/102
USR_MODEMS   0/1
VATICAN   0/2740
VIETNAM_VETS   0/14
VIRUS   0/378
VIRUS_INFO   0/201
VISUAL_BASIC   0/473
WHITEHOUSE   0/5187
WIN2000   0/101
WIN32   0/30
WIN95   3090/4291
WIN95_OLD1   0/70272
WINDOWS   0/1517
WWB_SYSOP   0/419
WWB_TECH   546/810
ZCC-PUBLIC   0/1
ZEC   4

 
4DOS   0/134
ABORTION   0/7
ALASKA_CHAT   0/506
ALLFIX_FILE   0/1313
ALLFIX_FILE_OLD1   0/7997
ALT_DOS   0/152
AMATEUR_RADIO   0/1039
AMIGASALE   0/14
AMIGA   0/331
AMIGA_INT   0/1
AMIGA_PROG   0/20
AMIGA_SYSOP   0/26
ANIME   0/15
ARGUS   0/924
ASCII_ART   0/340
ASIAN_LINK   0/651
ASTRONOMY   0/417
AUDIO   0/92
AUTOMOBILE_RACING   0/105
BABYLON5   0/17862
BAG   135
BATPOWER   0/361
BBBS.ENGLISH   0/382
BBSLAW   0/109
BBS_ADS   0/5290
BBS_INTERNET   0/507
BIBLE   0/3563
BINKD   0/1119
BINKLEY   0/215
BLUEWAVE   0/2173
CABLE_MODEMS   0/25
CBM   0/46
CDRECORD   0/66
CDROM   0/20
CLASSIC_COMPUTER   0/378
COMICS   0/15
CONSPRCY   0/899
COOKING   41026
COOKING_OLD1   0/24719
COOKING_OLD2   0/40862
COOKING_OLD3   0/37489
COOKING_OLD4   0/35496
COOKING_OLD5   9370
C_ECHO   0/189
C_PLUSPLUS   0/31
DIRTY_DOZEN   0/201
DOORGAMES   0/2253
DOS_INTERNET   0/196
duplikat   6102
ECHOLIST   0/18295
EC_SUPPORT   0/318
ELECTRONICS   0/359
ELEKTRONIK.GER   1534
ENET.LINGUISTIC   0/13
ENET.POLITICS   0/4
ENET.SOFT   0/11701
ENET.SYSOP   34256
ENET.TALKS   0/32
ENGLISH_TUTOR   0/2000
EVOLUTION   0/1335
FDECHO   0/217
FDN_ANNOUNCE   0/7068
FIDONEWS   24978
FIDONEWS_OLD1   0/49742
FIDONEWS_OLD2   0/35949
FIDONEWS_OLD3   0/30874
FIDONEWS_OLD4   0/37224
FIDO_SYSOP   12920
FIDO_UTIL   0/180
FILEFIND   0/209
FILEGATE   0/212
Möte HAM, 16617 texter
 lista första sista föregående nästa
Text 1309, 669 rader
Skriven 2006-10-19 22:02:23 av Amsat List (1:323/120.0)
Ärende: [keps]  orb06292.amsa
=============================
[keps]  orb06292.amsa


SB KEPS @ AMSAT  $ORB06292.O
Orbital Elements  06292.OSCAR

HR AMSAT ORBITAL ELEMENTS FOR OSCAR SATELLITES
FROM WA5QGD FORT WORTH,TX October 19, 2006
Send SUBSCRIBE KEPS/UNSUBSCRIBE KEPS to majordomo@amsat.org only
BID: ORB06292.O
TO ALL RADIO AMATEURS BT

Satellite: AO-07
Catalog number: 07530
Epoch time:      06291.72697165
Element set:     707
Inclination:      101.5540 deg
RA of node:       331.5071 deg
Eccentricity:    0.0011928
Arg of perigee:   006.6540 deg
Mean anomaly:     353.4684 deg
Mean motion:   12.53571567 rev/day
Decay rate:       -2.8e-07 rev/day^2
Epoch rev:           46086
Checksum:              296

Satellite: UO-11
Catalog number: 14781
Epoch time:      06292.62956674
Element set:     203
Inclination:      098.2072 deg
RA of node:       305.4905 deg
Eccentricity:    0.0008456
Arg of perigee:   221.2118 deg
Mean anomaly:     138.8421 deg
Mean motion:   14.79472381 rev/day
Decay rate:       2.83e-06 rev/day^2
Epoch rev:           21416
Checksum:              296

Satellite: RS-10/11
Catalog number: 18129
Epoch time:      06291.94533494
Element set:    0121
Inclination:      082.9219 deg
RA of node:       236.5940 deg
Eccentricity:    0.0013093
Arg of perigee:   104.7353 deg
Mean anomaly:     255.5253 deg
Mean motion:   13.72779758 rev/day
Decay rate:        5.7e-07 rev/day^2
Epoch rev:           96813
Checksum:              319

Satellite: RS-15
Catalog number: 23439
Epoch time:      06291.82971417
Element set:    0029
Inclination:      064.8205 deg
RA of node:       037.2522 deg
Eccentricity:    0.0166092
Arg of perigee:   232.6527 deg
Mean anomaly:     125.9166 deg
Mean motion:   11.27551705 rev/day
Decay rate:       -3.9e-07 rev/day^2
Epoch rev:           48648
Checksum:              310

Satellite: FO-29
Catalog number: 24278
Epoch time:      06291.96846145
Element set:    0343
Inclination:      098.5205 deg
RA of node:       279.4163 deg
Eccentricity:    0.0350945
Arg of perigee:   348.7909 deg
Mean anomaly:     010.5560 deg
Mean motion:   13.52924088 rev/day
Decay rate:       -6.9e-07 rev/day^2
Epoch rev:           50228
Checksum:              335

Satellite: SO-33
Catalog number: 25509
Epoch time:      06291.89462994
Element set:     770
Inclination:      031.4285 deg
RA of node:       149.9341 deg
Eccentricity:    0.0354722
Arg of perigee:   117.9229 deg
Mean anomaly:     245.7782 deg
Mean motion:   14.28127984 rev/day
Decay rate:       1.88e-06 rev/day^2
Epoch rev:           41673
Checksum:              347

Satellite: VO-52
Catalog number: 28650
Epoch time:      06291.61363098
Element set:     456
Inclination:      097.8609 deg
RA of node:       002.3848 deg
Eccentricity:    0.0026545
Arg of perigee:   322.0348 deg
Mean anomaly:     037.9002 deg
Mean motion:   14.81187155 rev/day
Decay rate:      -1.17e-06 rev/day^2
Epoch rev:            7865
Checksum:              313

/EX
SB KEPS @ AMSAT  $ORB06292.D
Orbital Elements  06292.MICROS

HR AMSAT ORBITAL ELEMENTS FOR THE MICROSATS
FROM WA5QGD FORT WORTH,TX October 19, 2006
Send SUBSCRIBE KEPS/UNSUBSCRIBE KEPS to majordomo@amsat.org only
BID: ORB06292.D
TO ALL RADIO AMATEURS BT

Satellite: AO-16
Catalog number: 20439
Epoch time:      06291.56808677
Element set:    0873
Inclination:      098.1905 deg
RA of node:       294.5898 deg
Eccentricity:    0.0010532
Arg of perigee:   182.5032 deg
Mean anomaly:     177.6094 deg
Mean motion:   14.31736079 rev/day
Decay rate:        6.0e-08 rev/day^2
Epoch rev:           87397
Checksum:              344

Satellite: LO-19
Catalog number: 20442
Epoch time:      06292.62543354
Element set:     806
Inclination:      098.1872 deg
RA of node:       305.1093 deg
Eccentricity:    0.0011798
Arg of perigee:   178.9000 deg
Mean anomaly:     181.2223 deg
Mean motion:   14.31978544 rev/day
Decay rate:        3.7e-07 rev/day^2
Epoch rev:           87426
Checksum:              307

Satellite: AO-27
Catalog number: 22825
Epoch time:      06291.52533372
Element set:     522
Inclination:      098.2984 deg
RA of node:       267.3907 deg
Eccentricity:    0.0007535
Arg of perigee:   258.8748 deg
Mean anomaly:     101.1603 deg
Mean motion:   14.29187320 rev/day
Decay rate:       1.77e-06 rev/day^2
Epoch rev:           68097
Checksum:              325

Satellite: IO-26
Catalog number: 22826
Epoch time:      06292.87406749
Element set:     215
Inclination:      098.2936 deg
RA of node:       269.8420 deg
Eccentricity:    0.0008066
Arg of perigee:   249.9786 deg
Mean anomaly:     110.0533 deg
Mean motion:   14.29431216 rev/day
Decay rate:        2.7e-07 rev/day^2
Epoch rev:           68124
Checksum:              320

Satellite: PO-28
Catalog number: 22829
Epoch time:      06291.96780260
Element set:    0500
Inclination:      098.2825 deg
RA of node:       270.1745 deg
Eccentricity:    0.0009104
Arg of perigee:   224.1419 deg
Mean anomaly:     135.9049 deg
Mean motion:   14.30127684 rev/day
Decay rate:       1.09e-06 rev/day^2
Epoch rev:           68133
Checksum:              299

Satellite: GO-32
Catalog number: 25397
Epoch time:      06291.79214328
Element set:    0138
Inclination:      098.4534 deg
RA of node:       344.1049 deg
Eccentricity:    0.0001042
Arg of perigee:   172.0572 deg
Mean anomaly:     188.0605 deg
Mean motion:   14.23111618 rev/day
Decay rate:      -1.73e-06 rev/day^2
Epoch rev:           42982
Checksum:              289

Satellite: MO-46
Catalog number: 26548
Epoch time:      06291.85162781
Element set:     624
Inclination:      064.5568 deg
RA of node:       209.2264 deg
Eccentricity:    0.0040907
Arg of perigee:   229.6864 deg
Mean anomaly:     130.0668 deg
Mean motion:   14.83033538 rev/day
Decay rate:        9.0e-08 rev/day^2
Epoch rev:           32774
Checksum:              325

